Location: Sungai Liu
(2.3667°N, 113.8667°E)
Time: 14:12:52
(UTC+00:00)

Cosmos 962 Rocket - Pass Details

Date: 20 May 2022
Orbit: 950 x 1000 km, 82.9° (Epoch: 06 July)

Event Time Altitude Azimuth Distance (km) Brightness Sun altitude
Rises 20:32:49 0° 348° (NNW) 3,607 7.6 -24.4°
Reaches altitude 10° 20:35:20 10° 344° (NNW) 2,664 6.9 -23.8°
Maximum altitude 20:41:16 56° 267° (W) 1,118 4.4 -22.4°
Enters shadow 20:44:19 29° 202° (SSW) 1,680 5.4 -21.7°
